Location: downtown San Diego
(32.7310°N, 117.1990°W)
Time: 13:43:40
(UTC-07:00)

Daily predictions for brighter satellites

Satellite Brightness Start Highest point End
(mag) Time Altitude Azimuth Time Altitude Azimuth Time Altitude Azimuth
Okean 1 3.4 20:09:59 10° S 20:13:56 87° WNW 20:17:55 10° N
NOSS 2-2 (D) 3.9 20:11:32 10° SW 20:15:27 64° WNW 20:19:42 10° NNE
CENTAUR R/B 3.6 20:08:32 10° NNW 20:16:17 49° NE 20:24:23 10° SE
Cosmos 1812 4.5 20:14:07 10° SSW 20:17:43 37° W 20:21:21 10° NNW
ALOS 3.5 20:14:25 10° S 20:18:49 43° W 20:23:16 10° NNW
ASTRO E2 2.8 20:16:43 10° W 20:20:40 64° S 20:24:38 10° ESE
COSMOS 2406 3.2 20:15:24 10° S 20:21:05 68° ESE 20:26:46 10° NNE
Cosmos 773 Rocket 4.5 20:17:30 10° SSW 20:22:36 66° WNW 20:27:42 10° N
Cosmos 1975 2.8 20:22:22 10° N 20:26:27 73° E 20:30:31 10° SSE
Cosmos 1743 3.7 20:23:05 10° NNE 20:26:33 30° E 20:30:00 10° SE
Cosmos 1346 3.6 20:24:11 10° SSE 20:26:41 32° E 20:29:12 10° NNE
ISS -2.5 20:24:25 10° WSW 20:27:35 46° NW 20:30:47 10° NE
Meteor 1-13 Rocket 4.4 20:23:07 10° S 20:28:55 58° E 20:34:42 10° NNE
Cosmos 2112 Rocket 4.1 20:26:41 10° S 20:31:46 54° ESE 20:36:50 10° NNE
CZ-2D R/B 3.5 20:31:01 10° S 20:34:48 71° WSW 20:38:37 10° NNW
SL-27 R/B 2.7 20:34:24 10° S 20:37:55 49° ESE 20:41:28 10° NNE
OAO 2 Rocket 3.6 20:33:24 10° W 20:38:19 67° N 20:43:16 10° E
Helios 1A 3.4 20:35:29 10° SSE 20:39:32 46° ENE 20:43:33 10° N
Spot 2 Rocket 3.8 20:35:49 10° S 20:40:50 70° WSW 20:45:52 10° NNW
Aureole 3 Rocket 3.8 20:35:32 10° S 20:42:20 62° E 20:47:10 10° NNE
YAOGAN 6 4.1 20:41:00 15° ESE 20:42:46 20° ENE 20:45:25 10° NNE
Cosmos 1939 Rocket 3.4 20:40:11 13° SE 20:43:17 39° ENE 20:46:54 10° N
Iridium 4 Rocket 4.5 20:42:56 10° NNW 20:48:01 53° W 20:53:31 10° SSW
Cosmos 1666 3.3 20:45:31 10° NNE 20:49:00 36° E 20:51:14 18° SE
USA 81 4.2 20:45:07 10° S 20:50:23 79° W 20:55:41 10° N
Cosmos 1437 4.4 20:48:10 10° SSW 20:51:10 36° W 20:54:11 10° N
Okean 1-7 Rocket 4.1 20:48:27 11° SSE 20:52:25 40° E 20:56:37 10° NNE
Cosmos 1680 Rocket 3.7 20:49:03 10° SSW 20:54:16 74° WNW 20:59:29 10° NNE
USA 186 3.0 20:54:44 10° S 20:57:46 39° W 21:00:46 10° NNW
Cosmos 1437 Rocket 4.4 20:57:31 10° NNE 21:00:06 17° ENE 21:00:45 16° E
Cosmos 1833 Rocket 4.1 21:00:38 17° ESE 21:00:58 17° E 21:04:29 10° ENE
Meteor 2-13 Rocket 4.4 20:56:27 10° N 21:02:31 70° E 21:07:53 13° SSE
Envisat 3.0 20:58:01 10° SSE 21:03:03 86° WSW 21:08:09 10° NNW
DNEPR-1 R/B 3.9 21:00:25 10° NNW 21:04:38 53° ENE 21:07:15 24° SE
Cosmos 2327 Rocket 4.5 20:59:41 10° N 21:05:55 71° E 21:11:21 14° SSE
Helios 1B rocket 3.0 21:02:18 10° N 21:06:23 59° WNW 21:10:26 10° SSW
Cosmos 1656 Rocket 3.7 21:01:48 10° NNW 21:07:16 76° WSW 21:11:47 16° SSE
Meteor 2-4 Rocket 3.7 21:03:22 10° S 21:08:57 88° E 21:14:46 10° N
Hubble Space Telescope 2.6 21:08:19 10° SSW 21:09:49 15° S 21:09:49 15° S
COSMOS 2455 4.1 21:07:44 10° NW 21:13:08 36° WSW 21:18:31 10° S
Cosmos 405 3.4 21:10:14 10° N 21:13:38 44° E 21:14:29 36° ESE
Cosmos 1025 Rocket 2.9 21:12:54 17° S 21:16:03 69° E 21:20:17 10° NNE
COSMOS 2487 4.2 21:17:33 19° ENE 21:17:33 19° ENE 21:19:16 10° NE
Intercosmos 24 4.3 21:13:45 10° NNE 21:17:06 35° E 21:17:38 33° ESE
GENESIS II 4.1 21:16:30 10° NNW 21:20:27 77° ENE 21:21:45 40° SE
Tiangong 2 4.0 21:27:32 10° NW 21:29:36 16° N 21:31:40 10° NNE
Okean 2 3.2 21:30:06 31° S 21:31:58 83° E 21:36:03 10° N
Cosmos 1441 Rocket 4.5 21:29:19 10° SSW 21:32:49 39° W 21:36:20 10° N
NOSS 8 (F) 4.4 21:29:28 10° SSW 21:33:08 88° WNW 21:36:38 10° NNE
Cosmos 2058 Rocket 4.3 21:30:26 10° NNE 21:34:08 26° ENE 21:34:08 26° ENE
Cosmos 2181 Rocket 4.2 21:34:12 30° SSE 21:37:11 53° E 21:43:17 10° NNE
ARGOS 3.5 21:40:03 38° ESE 21:41:36 48° ENE 21:46:48 10° N
Cosmos 1371 Rocket 4.0 21:37:09 10° NNW 21:42:28 72° ENE 21:44:07 44° SE
ERS-1 Rocket 2.9 21:41:27 36° S 21:43:34 86° W 21:48:36 10° NNW
Terra 3.8 21:46:49 15° ENE 21:46:49 15° ENE 21:49:29 10° NNE
SPOT 5 2.8 21:48:43 49° E 21:48:59 50° ENE 21:53:11 10° N
NOAA 11 4.1 21:47:14 40° SSE 21:49:16 83° ENE 21:54:43 10° N
Nimbus 7 Rocket 4.4 21:45:34 10° NNE 21:51:35 62° ESE 21:53:45 39° SSE
H-2A R/B 4.2 21:52:19 15° ENE 21:52:19 15° ENE 21:54:35 10° NNE
ASTRO E2 4.3 21:57:32 10° W 21:59:46 24° SW 21:59:46 24° SW
MetOp-B 4.1 21:59:38 47° S 22:01:13 83° WSW 22:06:36 10° NNW
Cosmos 962 Rocket 4.4 21:58:21 10° N 22:04:36 87° E 22:06:34 47° S
CENTAUR R/B 4.2 21:59:36 10° NW 22:06:55 37° WSW 22:12:04 19° SSW
Cosmos 2082 Rocket 2.0 22:05:18 43° S 22:07:16 81° ESE 22:12:56 10° NNE
Cosmos 2278 3.7 22:06:52 10° NNW 22:12:32 64° ENE 22:13:11 59° ESE
SL-24 DEB 4.1 22:14:20 77° SW 22:14:33 79° W 22:19:12 10° N
MOS 1-B Rocket 4.3 22:16:58 40° SSW 22:18:51 59° W 22:24:59 10° NNW
H-2A R/B 1.9 22:21:05 72° ENE 22:21:05 72° ENE 22:25:58 10° N
SL-8 Rocket 3.9 22:16:00 10° N 22:22:16 72° E 22:23:08 63° SE
OAO 2 Rocket 3.2 22:18:17 10° WNW 22:23:02 81° WNW 22:23:02 81° WNW
Cosmos 2228 3.4 22:19:42 10° N 22:23:12 59° N 22:23:12 59° N
Cosmos 1624 Rocket 4.5 22:20:24 10° NNW 22:25:32 52° WSW 22:26:18 48° SW
Cosmos 921 Rocket 3.4 22:22:16 10° NNW 22:26:11 64° NW 22:26:11 64° NW
Cosmos 2366 rocket 4.0 22:22:02 10° N 22:28:04 57° E 22:28:15 57° E
SL-08 RB Rocket 4.0 22:28:41 62° WNW 22:28:41 62° WNW 22:32:48 10° NNW
Cosmos 2369 3.5 22:26:38 10° NNW 22:32:23 86° WSW 22:32:38 82° S
Mugunghwa Rocket 4.5 22:24:48 10° WSW 22:32:33 53° S 22:32:33 53° S
Cosmos 1697 Rocket 3.2 22:27:30 10° N 22:32:41 44° ENE 22:32:41 44° ENE
Cosmos 1656 3.6 22:34:22 10° NNW 22:39:30 73° NNE 22:39:30 73° NNE
Cosmos 1833 Rocket 3.4 22:42:12 33° WSW 22:44:23 50° WNW 22:49:51 10° N
DMSP B5D2-2 4.2 22:42:11 10° N 22:47:26 68° WNW 22:47:29 68° WNW
Cosmos 1269 Rocket 4.5 22:51:09 55° NNE 22:51:09 55° NNE 22:55:17 10° NNE
Cosmos 1959 Rocket 4.4 22:45:06 10° N 22:51:28 79° W 22:51:51 76° SW
Timation 2 Rocket 4.1 22:53:45 58° WSW 22:54:53 71° WNW 23:01:06 10° NNE
SL-08 R/B 4.5 22:56:24 10° N 23:02:27 73° W 23:02:27 73° W
Cosmos 2218 Rocket 4.3 23:02:41 10° NNW 23:08:40 55° W 23:08:53 55° W
Meteor 2-14 Rocket 4.5 23:04:26 10° N 23:09:58 74° NNW 23:09:58 74° NNW
Cosmos 1980 Rocket 2.8 23:15:35 10° NNW 23:19:54 51° N 23:19:54 51° N
Terra 3.3 23:25:42 33° NW 23:25:42 33° NW 23:28:39 10° NNW
H-2A R/B 4.0 23:29:27 27° NW 23:29:27 27° NW 23:31:51 10° NNW
Nadezhda 3 Rocket 4.2 23:31:32 66° NW 23:31:32 66° NW 23:37:17 10° N
Cosmos 2322 Rocket 3.8 23:26:52 10° N 23:30:47 27° NE 23:30:47 27° NE
USA 267 3.3 23:34:12 10° NE 23:40:18 74° N 23:40:18 74° N
Lacrosse 5 4.1 23:48:51 18° NE 23:48:51 18° NE 23:50:08 10° NE
Cosmos 1821 Rocket 4.4 23:45:41 10° N 23:50:40 59° N 23:50:40 59° N
